This is the latest recevied weather packets stored in our database for station/object WX6HNX-2. If no packets are shown the sender has not sent any weather packets the latest 1 day(s).
| Time | Temp. | Humidity | Pressure | Rain* | Wind** | Luminosity | Snow |
|---|---|---|---|---|---|---|---|
| 1778027423 | 12.78° C | 79% | 1015.4 hPa | 0 mm | - | - | - |
| 1778026463 | 12.78° C | 79% | 1015.3 hPa | 0 mm | - | - | - |
| 1778025743 | 12.78° C | 78% | 1015.3 hPa | 0 mm | - | - | - |
| 1778025503 | 13.33° C | 78% | 1015.3 hPa | 0 mm | - | - | - |
| 1778025263 | 13.33° C | 78% | 1015.1 hPa | 0 mm | - | - | - |
| 1778025023 | 13.33° C | 78% | 1015.1 hPa | 0 mm | - | - | - |
| 1778024303 | 13.33° C | 77% | 1015.2 hPa | 0 mm | - | - | - |
| 1778022143 | 13.33° C | 75% | 1015 hPa | 0 mm | - | - | - |
| 1778021903 | 13.33° C | 75% | 1015 hPa | 0 mm | - | - | - |
| 1778021356 | 13.33° C | 73% | 1015 hPa | 0 mm | - | - | - |
| 1778021116 | 13.33° C | 73% | 1015 hPa | 0 mm | - | - | - |
| 1778020876 | 13.33° C | 75% | 1015 hPa | 0 mm | - | - | - |
| 1778020396 | 13.33° C | 75% | 1015 hPa | 0 mm | - | - | - |
| 1778016873 | 13.33° C | 77% | 1015.1 hPa | 0 mm | - | - | - |
| 1778016153 | 13.33° C | 80% | 1015.1 hPa | 0 mm | - | - | - |
| 1778015673 | 12.78° C | 79% | 1015.3 hPa | 0 mm | - | - | - |
| 1778015433 | 12.78° C | 78% | 1015.2 hPa | 0 mm | - | - | - |
| 1778015193 | 12.78° C | 78% | 1015.1 hPa | 0 mm | - | - | - |
| 1778014953 | 13.33° C | 77% | 1015.1 hPa | 0 mm | - | - | - |
| 1778014713 | 13.33° C | 79% | 1015 hPa | 0 mm | - | - | - |
| 1778014473 | 12.78° C | 78% | 1014.9 hPa | 0 mm | - | - | - |
| 1778013993 | 12.78° C | 76% | 1014.8 hPa | 0 mm | - | - | - |
| 1778013753 | 12.78° C | 76% | 1014.8 hPa | 0 mm | - | - | - |
| 1778013513 | 13.33° C | 77% | 1014.8 hPa | 0 mm | - | - | - |
| 1778013033 | 13.33° C | 78% | 1014.9 hPa | 0 mm | - | - | - |
* Rain latest hour (hover to see other rain measurements)
** Current wind speed in m/s (hover to see current wind gust speed)